User: anonymous   Login
Location: *
(43.9900°N, 3.4811°E)
Time: 02:10:46
(UTC+00:00)
Language:

Cosmos 2333 Rocket - Orbit

View from above orbital plane
View from above orbital plane
View from above satellite
View from above satellite

Ground track
Ground track

The orbit data is extracted from the following two-line orbital elements,

1 24298U 96051B   19321.49430726  .00000142  00000-0  10326-3 0  9999
2 24298  70.8362 359.5057 0017832 299.9186  60.0163 14.12449329196542
Epoch (UTC): 17 November 2019 11:51:48
Eccentricity: 0.0017832
inclination: 70.8362°
perigee height: 838 km
apogee height: 864 km
right ascension of ascending node: 359.5057°
argument of perigee: 299.9186°
revolutions per day: 14.12449329
mean anomaly at epoch: 60.0163°
orbit number at epoch: 19654

The dashed part of the orbit path shows where the satellite is in the earth's shadow,  

DLR